Date String (YYYY-MM-DD hh:mm:ss) UTC,Instrument flags,absolute air pressure of the measurement (hPa),sample flow rate (lpm),inlet stack bypass flow (lpm),air temperature of the measurement (°C),ambient temperature measured by the external sensor (°C),aerosol sample conditioner tube jacket temperature (°C),OPC LED temperature (°C),internal box temperature (°C),relative humidity of the measurement (%),span deviation,mass concentration of particles derived from Lorenz-Mie calculation of OPC scattering (μg/m³),mass concentration of particles derived from Lorenz-Mie calculation of OPC scattering (μg/m³),mass concentration of particles derived from Lorenz-Mie calculation of OPC scattering (μg/m³)
DateTimeUTC,F1_M11,P_M11,Q1_M11,Q2_M11,T1_M11,T2_M11,T3_M11,T4_M11,T5_M11,U1_M11,ZSPAN_M11,X0_M11,X2_M11,X1_M11
2024-03-04 18:00:00,SystemResetWarning,0823.0,5.01,000.00,019.0,018.4,000.0,027.4,020.7,12.3,0000.0,0007.74,0001.34,0000.57
2024-03-04 18:01:00,SystemResetWarning,0822.9,5.00,000.00,019.0,018.4,000.0,027.4,020.7,12.4,0000.0,0008.05,0001.33,0000.54
2024-03-04 18:02:00,SystemResetWarning,0822.8,5.00,000.00,019.0,018.4,000.0,027.4,020.7,12.3,0000.0,0008.83,0001.30,0000.52
2024-03-04 18:03:00,SystemResetWarning,0823.1,5.00,000.00,019.0,018.4,000.0,027.4,020.7,12.2,0000.0,0008.94,0001.27,0000.51
2024-03-04 18:04:00,SystemResetWarning,0823.1,5.00,000.00,019.0,018.4,000.0,027.4,020.7,12.2,0000.0,0008.45,0001.19,0000.49
2024-03-04 18:05:00,SystemResetWarning,0822.8,4.99,000.00,019.0,018.3,000.0,027.4,020.7,12.3,0000.0,0008.39,0001.17,0000.49
2024-03-04 18:06:00,SystemResetWarning,0822.8,5.00,000.00,019.0,018.3,000.0,027.4,020.7,12.7,0000.0,0008.31,0001.10,0000.49
2024-03-04 18:07:00,SystemResetWarning,0823.0,5.00,000.00,019.0,018.4,000.0,027.4,020.7,12.5,0000.0,0008.22,0001.03,0000.49
2024-03-04 18:08:00,SystemResetWarning,0822.9,5.01,000.00,019.0,018.4,000.0,027.4,020.7,12.4,0000.0,0008.32,0001.02,0000.49
2024-03-04 18:09:00,SystemResetWarning,0822.8,5.00,000.00,019.0,018.4,000.0,027.4,020.7,12.5,0000.0,0009.27,0001.07,0000.48
2024-03-04 18:10:00,SystemResetWarning,0823.0,5.00,000.00,019.0,018.3,000.0,027.4,020.7,12.4,0000.0,0009.31,0001.02,0000.48
2024-03-04 18:11:00,SystemResetWarning,0822.7,5.00,000.00,019.0,018.3,000.0,027.4,020.7,12.3,0000.0,0009.05,0001.05,0000.50
2024-03-04 18:12:00,SystemResetWarning,0822.8,5.00,000.00,019.0,018.3,000.0,027.4,020.7,12.1,0000.0,0008.83,0001.03,0000.51
2024-03-04 18:13:00,SystemResetWarning,0823.0,5.00,000.00,019.0,018.3,000.0,027.4,020.6,12.1,0000.0,0008.50,0001.05,0000.52
2024-03-04 18:14:00,SystemResetWarning,0823.0,4.99,000.00,019.0,018.3,000.0,027.4,020.6,12.2,0000.0,0008.01,0001.03,0000.52
2024-03-04 18:15:00,SystemResetWarning,0822.7,4.99,000.00,019.0,018.3,000.0,027.4,020.7,12.3,0000.0,0007.97,0001.02,0000.52
2024-03-04 18:16:00,SystemResetWarning,0822.8,5.00,000.00,019.0,018.3,000.0,027.4,020.7,12.1,0000.0,0008.04,0001.04,0000.53
2024-03-04 18:17:00,SystemResetWarning,0822.8,5.01,000.00,019.0,018.3,000.0,027.4,020.7,12.2,0000.0,0008.26,0001.06,0000.54
2024-03-04 18:18:00,SystemResetWarning,0822.6,5.00,000.00,019.0,018.3,000.0,027.4,020.6,12.2,0000.0,0008.24,0001.10,0000.55
2024-03-04 18:19:00,SystemResetWarning,0822.5,5.01,000.00,019.0,018.3,000.0,027.4,020.7,12.2,0000.0,0007.66,0001.14,0000.56
2024-03-04 18:20:00,SystemResetWarning,0822.4,4.98,000.00,019.0,018.3,000.0,027.4,020.7,12.3,0000.0,0006.67,0001.06,0000.56
2024-03-04 18:21:00,SystemResetWarning,0822.5,4.99,000.00,019.0,018.3,000.0,027.4,020.7,12.5,0000.0,0006.44,0001.05,0000.57
2024-03-04 18:22:00,SystemResetWarning,0822.4,5.00,000.00,019.0,018.3,000.0,027.4,020.7,12.5,0000.0,0006.23,0001.03,0000.56
2024-03-04 18:23:00,SystemResetWarning,0822.5,5.01,000.00,019.0,018.3,000.0,027.4,020.6,12.5,0000.0,0006.54,0001.12,0000.56
2024-03-04 18:24:00,SystemResetWarning,0822.5,5.00,000.00,019.0,018.3,000.0,027.4,020.7,12.5,0000.0,0005.82,0001.10,0000.55
2024-03-04 18:25:00,SystemResetWarning,0822.6,4.99,000.00,019.0,018.3,000.0,027.4,020.7,12.4,0000.0,0005.67,0001.08,0000.55
2024-03-04 18:26:00,SystemResetWarning,0822.7,4.99,000.00,019.0,018.3,000.0,027.4,020.7,12.3,0000.0,0005.65,0001.10,0000.56
2024-03-04 18:27:00,SystemResetWarning,0822.4,5.01,000.00,019.0,018.3,000.0,027.4,020.7,12.3,0000.0,0005.67,0001.14,0000.57
2024-03-04 18:28:00,SystemResetWarning,0822.6,5.00,000.00,019.0,018.3,000.0,027.4,020.7,12.5,0000.0,0005.68,0001.16,0000.56
2024-03-04 18:29:00,SystemResetWarning,0822.5,5.01,000.00,019.0,018.3,000.0,027.4,020.7,12.4,0000.0,0007.10,0001.22,0000.56
2024-03-04 18:30:00,SystemResetWarning,0822.5,5.00,000.00,019.0,018.4,000.0,027.4,020.7,12.6,0000.0,0007.31,0001.22,0000.56
2024-03-04 18:31:00,SystemResetWarning,0822.4,5.00,000.00,019.0,018.4,000.0,027.4,020.7,12.5,0000.0,0006.99,0001.23,0000.56
2024-03-04 18:32:00,SystemResetWarning,0822.4,5.00,000.00,019.0,018.4,000.0,027.4,020.7,12.5,0000.0,0005.66,0001.25,0000.55
2024-03-04 18:33:00,SystemResetWarning,0822.5,5.00,000.00,019.0,018.4,000.0,027.4,020.7,12.4,0000.0,0005.71,0001.27,0000.56
2024-03-04 18:34:00,SystemResetWarning,0822.5,5.00,000.00,019.0,018.4,000.0,027.4,020.7,12.6,0000.0,0005.37,0001.24,0000.57
2024-03-04 18:35:00,SystemResetWarning,0822.4,5.00,000.00,019.0,018.4,000.0,027.4,020.7,12.5,0000.0,0005.09,0001.21,0000.57
2024-03-04 18:36:00,SystemResetWarning,0822.4,5.00,000.00,019.0,018.4,000.0,027.4,020.7,12.3,0000.0,0004.90,0001.24,0000.58
2024-03-04 18:37:00,SystemResetWarning,0822.4,5.00,000.00,019.0,018.4,000.0,027.4,020.7,12.6,0000.0,0004.62,0001.24,0000.58
2024-03-04 18:38:00,SystemResetWarning,0822.4,5.00,000.00,019.0,018.4,000.0,027.4,020.7,12.6,0000.0,0004.68,0001.23,0000.58
2024-03-04 18:39:00,SystemResetWarning,0822.4,5.00,000.00,019.0,018.4,000.0,027.4,020.7,12.7,0000.0,0004.70,0001.23,0000.57
2024-03-04 18:40:00,SystemResetWarning,0822.4,5.00,000.00,019.0,018.4,000.0,027.4,020.7,12.4,0000.0,0003.03,0001.19,0000.58
2024-03-04 18:41:00,SystemResetWarning,0822.4,5.00,000.00,019.0,018.4,000.0,027.4,020.7,12.5,0000.0,0003.06,0001.21,0000.57
2024-03-04 18:42:00,SystemResetWarning,0822.4,5.00,000.00,019.0,018.4,000.0,027.4,020.7,12.5,0000.0,0004.20,0001.29,0000.58
2024-03-04 18:43:00,SystemResetWarning,0822.4,5.00,000.00,019.0,018.4,000.0,027.4,020.7,12.6,0000.0,0004.26,0001.30,0000.60
2024-03-04 18:44:00,SystemResetWarning,0822.4,5.00,000.00,019.0,018.4,000.0,027.4,020.7,12.4,0000.0,0005.03,0001.32,0000.60
2024-03-04 18:45:00,SystemResetWarning,0822.4,5.00,000.00,019.0,018.4,000.0,027.4,020.7,12.5,0000.0,0006.01,0001.29,0000.61
2024-03-04 18:46:00,SystemResetWarning,0822.4,5.00,000.00,019.0,018.4,000.0,027.4,020.7,12.7,0000.0,0005.84,0001.26,0000.62
2024-03-04 18:47:00,SystemResetWarning,0822.4,5.00,000.00,019.0,018.4,000.0,027.4,020.7,12.6,0000.0,0006.13,0001.34,0000.64
2024-03-04 18:48:00,SystemResetWarning,0822.4,5.00,000.00,019.0,018.4,000.0,027.5,020.7,12.4,0000.0,0006.22,0001.35,0000.65
2024-03-04 18:49:00,SystemResetWarning,0822.3,5.00,000.00,019.0,018.4,000.0,027.5,020.7,12.6,0000.0,0006.63,0001.38,0000.66
2024-03-04 18:50:00,SystemResetWarning,0822.4,4.99,000.00,019.0,018.4,000.0,027.5,020.7,12.6,0000.0,0006.76,0001.42,0000.69
2024-03-04 18:51:00,SystemResetWarning,0822.4,5.00,000.00,019.0,018.4,000.0,027.4,020.7,12.4,0000.0,0007.33,0001.46,0000.71
2024-03-04 18:52:00,SystemResetWarning,0822.2,5.01,000.00,019.0,018.3,000.0,027.4,020.7,12.5,0000.0,0008.31,0001.47,0000.72
2024-03-04 18:53:00,SystemResetWarning,0822.3,5.00,000.00,019.0,018.3,000.0,027.4,020.7,12.5,0000.0,0007.89,0001.38,0000.72
2024-03-04 18:54:00,SystemResetWarning,0822.3,5.00,000.00,019.0,018.3,000.0,027.4,020.7,12.5,0000.0,0008.22,0001.37,0000.72
2024-03-04 18:55:00,SystemResetWarning,0822.3,5.00,000.00,019.0,018.3,000.0,027.4,020.7,12.5,0000.0,0008.25,0001.41,0000.71
2024-03-04 18:56:00,SystemResetWarning,0822.2,5.01,000.00,019.0,018.3,000.0,027.4,020.7,12.6,0000.0,0007.98,0001.43,0000.71
2024-03-04 18:57:00,SystemResetWarning,0822.2,5.00,000.00,019.0,018.3,000.0,027.4,020.7,12.5,0000.0,0008.09,0001.44,0000.70
2024-03-04 18:58:00,SystemResetWarning,0822.2,5.00,000.00,019.0,018.3,000.0,027.4,020.6,12.8,0000.0,0008.55,0001.38,0000.71
2024-03-04 18:59:00,SystemResetWarning,0822.2,4.99,000.00,019.0,018.3,000.0,027.4,020.7,12.7,0000.0,0008.82,0001.44,0000.72
